DMSP 5D-2 F13 DEB, 40418

Orbit data source: Space-Track

DMSP 5D-2 F13 DEB, 40418 is space debris in SSO originally from a launch on Fri, 24 Mar 1995 UTC launched from the Air Force Western Test Range (AFWTR). Debris objects in space refer to the collection of defunct objects orbiting the Earth. Examples of debris include non-operational satellites, rocket bodies, and fragments generated from explosions, collisions, or faulty payload assembly.

Loading next visibility...
Identifier
40418, 1995-015AF
Orbit
SSO
Last TLE update
2 days ago
Origin
Manufacturer
Unknown
Mission
Spacecraft
Bus & Motor
Unknown
Mass
Unknown
Launch date (UTC)
1995-03-24 (30 years ago)
Launch vehicle
Unknown
Launch site
Air Force Western Test Range (AFWTR)
Object type
Payload
Rocket body
Debris
Shape & HBR
Unknown
Radar Cross Section
Small (<0.1 m²)

Expand to show TLE details & history

TLE from 2 days ago
0 DMSP 5D-2 F13 DEB
1 40418U 95015AF  25187.52004568  .00002017  00000-0  77956-3 0  9997
2 40418  98.6752 212.4879 0005666 266.1154  93.9381 14.31243651537757
Epoch: 2025-07-06T12:28Z
TLE epoch observation values (Epoch: 2025-07-06T12:28:51.946Z)
Latitude
-0.00005°
Longitude
100.5289°
Altitude
790.789 km
Speed
7.458 km/s
True Right ascension
14h 09m 57s
True Declination
0° 00' 00"
Sunlit
Object was in daylight at epoch
Visualization orbit readout
Latitude
-5.07423°
Longitude
-78.46253°
Altitude
790.292 km
Speed
7.459 km/s
Apparent Right ascension
04h 14m 35s
Apparent Declination
-26° 18' 06"
Sunlit
Object is in daylight
Visualization observer readout
Local Sidereal Time
19:22:50
Azimuth
85.472° E
Elevation
-48.823°
Doppler factor
1
Orbital elements
Apogee altitude
788.777 km
Perigee altitude
780.66 km
Semi-major axis
7,162.856 km
Eccentricity
0.00057
Inclination
98.6752°
RAAN
212.4879°
Arg. of periapsis
266.1154°
True anomaly
Unknown
Mean anomaly
93.9381°
Eccentric anomaly
Unknown
Mean motion
3.58025 °/min
Orbital period
100.55 mins
BSTAR
0.00077956
Loading maneuver chart data...
Loading SW <> Apogee altitude chart data...

DMSP 5D-2 F13 DEB Visibility forecast

Observer location: undefined°, undefined°

Span
Click to sort rows by Start time (UTC) header in descending order
Start Az.
Max El. time (UTC)
Max El. Az.
Max El.
End time (UTC)
End Az.
7 mins2025-07-08 13:44:19.178Z43.918° NE2025-07-08 13:47:19.178Z86.467° E25.126°2025-07-08 13:51:19.178Z148.637° SSE
7 mins2025-07-08 15:24:19.178Z342.244° N2025-07-08 15:27:19.178Z288.437° WNW28.906°2025-07-08 15:31:19.178Z231.475° WSW
8 mins2025-07-09 01:01:19.178Z130.941° SE2025-07-09 01:05:19.178Z55.441° ENE32.374°2025-07-09 01:09:19.178Z2.974° NNE
7 mins2025-07-09 02:41:19.178Z221.783° SW2025-07-09 02:44:19.178Z264.83° W21.752°2025-07-09 02:48:19.178Z317.085° NNW
|